Location: Hilton Head Island
(32.2163°N, 80.7526°W)
Time: 14:32:57
(UTC-04:00)

Vanguard 1 - Pass Details

Date: 22 February 2026
Orbit: 653 x 3818 km, 34.2° (Epoch: 9 March)

Event Time Altitude Azimuth Distance (km) Brightness Sun altitude
Rises 18:15:01 0° 283° (WNW) 5,239 15.2 -0.8°
Reaches altitude 10° 18:17:49 10° 283° (WNW) 4,565 14.8 -1.4°
Maximum altitude 18:31:58 86° 197° (SSW) 3,068 12.6 -4.3°
Drops below altitude 10° 18:55:04 10° 111° (ESE) 6,912 13.8 -9.2°
Enters shadow 18:59:23 - 111° (ESE) 7,723 14.1 -10.1°
Sets 19:00:31 0° 111° (ESE) 7,929 - -10.3°
